CZ-4 DEB, 28074

Orbit data source: Space-Track

CZ-4 DEB, 28074 is space debris in SSO originally from a launch on Thu, 14 Oct 1999 UTC launched from the Taiyaun Space Center, China (TSC). Debris objects in space refer to the collection of defunct objects orbiting the Earth. Examples of debris include non-operational satellites, rocket bodies, and fragments generated from explosions, collisions, or faulty payload assembly.

Loading next visibility...
Identifier
28074, 1999-057NE
Orbit
SSO
Country
Flag of CNCN / PRC
Related business
Manufacturer
Unknown
Mission
Spacecraft
Bus & Motor
Unknown
Mass
Unknown
Launch date (UTC)
1999-10-14 (26 years ago)
Launch vehicle
Unknown
Launch site
Taiyaun Space Center, China (TSC)
Object type
Payload
Rocket body
Debris
Shape & HBR
Unknown shape, 0.1 m
Radar Cross Section
Small (<0.1 m²)

Expand to show TLE details & history
Last TLE update: 3 days ago

TLE from 3 days ago
0 CZ-4 DEB
1 28074U 99057NE  25302.34904863  .00000281  00000-0  11145-3 0  9996
2 28074  98.8606 332.9776 0102189 324.5785  54.6396 14.33993096190417
Epoch: 2025-10-29T08:22Z
TLE epoch observation values (Epoch: 2025-10-29T08:22:37.801Z)
Latitude
19.93269°
Longitude
166.17321°
Altitude
739.092 km
Speed
7.509 km/s
True Right ascension
21h 59m 01s
True Declination
19° 49' 21"
Sunlit
Object was in full shadow at epoch
Visualization orbit readout
Latitude
Unknown
Longitude
Unknown
Altitude
Unknown
Speed
Unknown
Apparent Right ascension
Unknown
Apparent Declination
Unknown
Sunlit
N/A
Visualization observer readout
Local Sidereal Time
22:09:02
Azimuth
Unknown
Elevation
Unknown
Doppler factor
Unknown
Orbital elements
Apogee altitude
848.664 km
Perigee altitude
702.458 km
Semi-major axis
7,153.698 km
Eccentricity
0.01022
Inclination
98.8606°
RAAN
332.9776°
Arg. of periapsis
324.5785°
True anomaly
55.60165°
Mean anomaly
54.6396°
Eccentric anomaly
55.11992°
Mean motion
3.58713 °/min
Orbital period
100.36 mins
BSTAR
0.00011145
Loading maneuver chart data...
Computing Atmospheric mass density...
Loading historical data...
Loading historical data...
Loading historical data...
Loading historical data...
Loading historical data...
Loading historical data...
Loading historical data...

Documentation

Showing up to 5 results
|